Content
SEND FEEDBACK

Daily
Averages
Monthly
Summary
United States of America

NEW YORK - CENTRAL PARK, NEW YORK


Home > North America > United States > New York
Elevation: 14 feet     Latitude: 40 47N     Longitude: 073 58W

WEATHER
 
SELECT A DAY
Number of Records: 148,014;   Date Range: 11/1/95 - 7/22/14
 
SHARE

PRINT THIS DATA

[ ← Previous Day ]
WEATHER ALMANAC - MAY 12, 2013
[ Next Day → ]
[ °C ]   °F
Weather ElementAverageHighLow
Temperature61 °F68 °F (11:51 am)52 °F (11:51 pm)
Dewpoint38.5 °F55.9 °F (1:51 am)24.1 °F (6:51 pm)
Humidity46.7 %80 % (1:51 am)25 % (3:51 pm)
Barometer29.74 in29.94 in (11:51 pm)29.66 in (2:51 am)
Wind Speed7.8 mph11.5 mph (12:51 pm)
Wind Gust27.6 mph (1:51 pm)
Weather ElementAverage
Visibility9.8 mi
Wind DirectionWSW (242.2 °)

Weather ElementTotal
Precipitation---
Heating Degree Days5 (Base 65)
Growing Degree Days10 (Base 50)
Averaged from 23 records on May 12, 2013
WEATHER CONDITIONS BREAKOUT
WIND DIRECTION BREAKOUT
WEATHER BY HOUR - MAY 12, 2013
[ °C ]   °F
Local TimeTemperatureDewpointHumidityBarometerVisibilityWind DirectionWind SpeedGust SpeedPrecipitationEventsConditions
1:51 AM62.1 °F55.9 °F80 %29.68 in10.0 miWest (280°)6.9 mphMostly Cloudy
2:51 AM62.1 °F55.0 °F78 %29.66 in10.0 miWest (280°)5.8 mphClear
3:51 AM61.0 °F53.1 °F75 %29.68 in10.0 miWNW (290°)4.6 mphMostly Cloudy
4:51 AM61.0 °F50.0 °F67 %29.69 in10.0 miWNW (290°)3.5 mphOvercast
5:51 AM59.0 °F48.9 °F69 %29.71 in7.0 miWNW (290°)5.8 mph0.00 inRainLight Rain
6:51 AM59.0 °F48.0 °F67 %29.70 in9.0 miWest (280°)5.8 mph0.00 inOvercast
7:51 AM57.0 °F46.9 °F69 %29.71 in10.0 miVariable5.8 mph0.00 inMostly Cloudy
8:51 AM59.0 °F44.1 °F58 %29.71 in10.0 miVariable3.5 mph18.4 mphClear
9:51 AM61.0 °F44.1 °F54 %29.70 in10.0 miWest (270°)8.1 mphClear
10:51 AM64.9 °F43.0 °F45 %29.70 in10.0 miWest (260°)6.9 mph17.3 mphClear
11:51 AM68.0 °F44.1 °F42 %29.69 in10.0 miVariable6.9 mphScattered Clouds
12:51 PM68.0 °F43.0 °F40 %29.69 in10.0 miWSW (250°)11.5 mph20.7 mphPartly Cloudy
1:51 PM66.9 °F39.9 °F37 %29.69 in10.0 miWest (270°)9.2 mph27.6 mphScattered Clouds
2:51 PM66.9 °F34.0 °F30 %29.69 in10.0 miWNW (290°)10.4 mph20.7 mphClear
3:51 PM66.0 °F28.9 °F25 %29.70 in10.0 miWest (260°)10.4 mph24.2 mphClear
4:51 PM64.9 °F28.0 °F25 %29.71 in10.0 miWest (270°)10.4 mph25.3 mphClear
5:51 PM62.1 °F28.0 °F28 %29.74 in10.0 miWest (270°)10.4 mph24.2 mphClear
6:51 PM60.1 °F24.1 °F25 %29.78 in10.0 miWest (280°)9.2 mph26.5 mphClear
7:51 PM57.9 °F24.1 °F27 %29.81 in10.0 miWest (280°)10.4 mph24.2 mphClear
8:51 PM57.0 °F24.1 °F28 %29.85 in10.0 miWest (280°)9.2 mph19.6 mphClear
9:51 PM55.0 °F26.1 °F33 %29.90 in10.0 miWNW (300°)8.1 mphPartly Cloudy
10:51 PM53.1 °F26.1 °F35 %29.92 in10.0 miWNW (290°)8.1 mph23.0 mphClear
11:51 PM52.0 °F26.1 °F37 %29.94 in10.0 miWNW (290°)8.1 mph18.4 mphClear
Hourly data recorded from KNYC, located miles away from New York - Central Park, New York







STORIES FROM OUR PARTNERS